Tracking 22454 objects as of 5-Mar-2021
HD Live streaming from Space Station
objects crossing your sky now

FREGAT DEB

Track FREGAT DEB now!
10-day predictions


NORAD ID: 46020
Int'l Code: 2011-037HX
Perigee: 522.5 km
Apogee: 6,012.7 km
Inclination: 51.1 °
Period: 157.0 minutes
Semi major axis: 9638 km
RCS: Unknown
Launch date: July 18, 2011
Source: Commonwealth of Independent States (former USSR) (CIS)
Launch site: TYURATAM MISSILE AND SPACE COMPLEX (TTMTR)

Note: This is SATELLITE DEBRIS
aabbcc
Your satellite tracking list
Your tracking list is empty




NASA's NSSDC Master Catalog

Two Line Element Set (TLE):
1 46020U 11037HX  20243.43515297 +.00092441 +00000-0 +65467-1 0  9990
2 46020 051.0882 254.7374 2848025 133.9559 253.4612 09.17443954002948
Source of the keplerian elements: AFSPC